BOX295 EDDP-EDDF

Flight info

Callsign BOX295
Flight time 0h 33m
Altitude 22000
Route ORTAG5N ORTAG T177 ODIPI/N0428F210 T157 KERAX KERAX5A
Aircraft B77L/H-SDE1E2E3FGHIJ2J3J4J5M1RWXY/LB1D1

Departure

Time 2026-05-06 14:09
Airport Leipzig/Halle Airport (EDDP)

Arrival

Time 2026-05-06 14:42
Airport Frankfurt Main Airport (EDDF)
Time Latitude Longitude Altitude Speed Heading
2026-05-06 13:53 51.40867 12.24508 470 ft 0 kts 266°
2026-05-06 14:00 51.40868 12.24529 466 ft 3 kts 268°
2026-05-06 14:01 51.40869 12.24562 466 ft 3 kts 272°
2026-05-06 14:01 51.40867 12.24594 466 ft 3 kts 278°
2026-05-06 14:01 51.40864 12.24626 464 ft 3 kts 287°
2026-05-06 14:01 51.40856 12.24655 464 ft 3 kts 308°
2026-05-06 14:02 51.40844 12.24672 463 ft 2 kts 349°
2026-05-06 14:02 51.40841 12.24674 465 ft 1 kts 355°
2026-05-06 14:04 51.40853 12.24672 463 ft 6 kts 356°
2026-05-06 14:05 51.40958 12.24660 468 ft 22 kts 356°
2026-05-06 14:05 51.41090 12.24695 469 ft 20 kts 57°
2026-05-06 14:05 51.41110 12.24897 476 ft 19 kts 85°
2026-05-06 14:05 51.41120 12.25120 473 ft 21 kts 85°
2026-05-06 14:06 51.41131 12.25360 478 ft 20 kts 85°
2026-05-06 14:06 51.41147 12.25573 474 ft 19 kts 68°
2026-05-06 14:06 51.41228 12.25619 479 ft 13 kts
2026-05-06 14:06 51.41265 12.25617 481 ft 0 kts 355°
2026-05-06 14:07 51.41266 12.25617 481 ft 1 kts 355°
2026-05-06 14:07 51.41306 12.25610 479 ft 10 kts 351°
2026-05-06 14:07 51.41378 12.25523 476 ft 17 kts 297°
2026-05-06 14:07 51.41391 12.25381 478 ft 0 kts 264°
2026-05-06 14:08 51.41391 12.25378 478 ft 5 kts 264°
2026-05-06 14:08 51.41370 12.24909 481 ft 83 kts 265°
2026-05-06 14:08 51.41311 12.23655 477 ft 143 kts 266°
2026-05-06 14:08 51.41223 12.21793 478 ft 193 kts 266°
2026-05-06 14:09 51.41122 12.19623 1019 ft 198 kts 269°
2026-05-06 14:09 51.41066 12.17386 1749 ft 202 kts 269°
2026-05-06 14:09 51.41014 12.15153 2548 ft 199 kts 267°
2026-05-06 14:09 51.40946 12.12926 3126 ft 202 kts 265°
2026-05-06 14:10 51.40821 12.10587 3446 ft 223 kts 263°
2026-05-06 14:10 51.40651 12.08007 3812 ft 241 kts 263°
2026-05-06 14:10 51.40487 12.05312 4479 ft 246 kts 263°
2026-05-06 14:10 51.40333 12.02552 5174 ft 253 kts 263°
2026-05-06 14:11 51.40183 11.99719 5893 ft 258 kts 263°
2026-05-06 14:11 51.40020 11.96845 6643 ft 258 kts 258°
2026-05-06 14:11 51.39380 11.94200 7181 ft 260 kts 237°
2026-05-06 14:11 51.38403 11.91724 7869 ft 264 kts 238°
2026-05-06 14:12 51.37452 11.89186 8675 ft 266 kts 238°
2026-05-06 14:12 51.36504 11.86625 9463 ft 269 kts 238°
2026-05-06 14:12 51.35545 11.84038 10128 ft 275 kts 238°
2026-05-06 14:12 51.34529 11.81304 10364 ft 298 kts 238°
2026-05-06 14:13 51.33422 11.78337 10569 ft 323 kts 238°
2026-05-06 14:13 51.32226 11.75135 10759 ft 348 kts 238°
2026-05-06 14:13 51.30950 11.71725 11218 ft 364 kts 238°
2026-05-06 14:13 51.29632 11.68211 11941 ft 372 kts 238°
2026-05-06 14:14 51.28293 11.64643 12857 ft 377 kts 238°
2026-05-06 14:14 51.26941 11.61047 13796 ft 380 kts 238°
2026-05-06 14:14 51.25568 11.57399 14600 ft 384 kts 238°
2026-05-06 14:14 51.24186 11.53735 15408 ft 388 kts 238°
2026-05-06 14:15 51.22778 11.50008 16144 ft 394 kts 238°
2026-05-06 14:15 51.21351 11.46239 16902 ft 399 kts 238°
2026-05-06 14:15 51.19905 11.42423 17673 ft 404 kts 237°
2026-05-06 14:15 51.18463 11.38623 18389 ft 408 kts 238°
2026-05-06 14:16 51.16995 11.34759 19083 ft 411 kts 238°
2026-05-06 14:16 51.15511 11.30861 19797 ft 413 kts 238°
2026-05-06 14:16 51.14014 11.26935 20497 ft 416 kts 238°
2026-05-06 14:16 51.12507 11.22987 21172 ft 419 kts 238°
2026-05-06 14:17 51.10980 11.18992 21764 ft 423 kts 238°
2026-05-06 14:17 51.09439 11.14970 21760 ft 426 kts 238°
2026-05-06 14:17 51.08483 11.12474 21767 ft 424 kts 238°
2026-05-06 14:17 51.07231 11.09213 21767 ft 423 kts 238°
2026-05-06 14:18 51.05695 11.05219 21777 ft 423 kts 238°
2026-05-06 14:18 51.04150 11.01206 21779 ft 425 kts 238°
2026-05-06 14:18 51.02604 10.97195 21777 ft 426 kts 238°
2026-05-06 14:18 51.01092 10.93282 21776 ft 428 kts 238°
2026-05-06 14:19 50.99534 10.89252 21794 ft 428 kts 238°
2026-05-06 14:19 50.97975 10.85230 21782 ft 428 kts 238°
2026-05-06 14:19 50.96415 10.81211 21771 ft 427 kts 238°
2026-05-06 14:19 50.94856 10.77200 21770 ft 426 kts 238°
2026-05-06 14:20 50.93300 10.73204 21766 ft 425 kts 238°
2026-05-06 14:20 50.91750 10.69226 21767 ft 424 kts 238°
2026-05-06 14:20 50.90204 10.65268 21766 ft 423 kts 238°
2026-05-06 14:20 50.88658 10.61314 21765 ft 422 kts 238°
2026-05-06 14:21 50.87114 10.57373 21765 ft 421 kts 238°
2026-05-06 14:21 50.85567 10.53427 21744 ft 421 kts 238°
2026-05-06 14:21 50.84032 10.49521 21753 ft 423 kts 238°
2026-05-06 14:21 50.82481 10.45579 21753 ft 425 kts 238°
2026-05-06 14:22 50.80918 10.41611 21761 ft 426 kts 238°
2026-05-06 14:22 50.79346 10.37628 21757 ft 428 kts 238°
2026-05-06 14:22 50.77764 10.33624 21757 ft 428 kts 238°
2026-05-06 14:22 50.76208 10.29693 21751 ft 427 kts 238°
2026-05-06 14:23 50.74644 10.25749 21671 ft 417 kts 238°
2026-05-06 14:23 50.73103 10.21865 21286 ft 408 kts 237°
2026-05-06 14:23 50.71624 10.18145 20796 ft 403 kts 237°
2026-05-06 14:23 50.70141 10.14421 20190 ft 394 kts 237°
2026-05-06 14:24 50.68710 10.10831 19526 ft 380 kts 237°
2026-05-06 14:24 50.67710 10.08325 19093 ft 372 kts 237°
2026-05-06 14:24 50.66351 10.04923 18458 ft 361 kts 237°
2026-05-06 14:24 50.65030 10.01622 17845 ft 351 kts 236°
2026-05-06 14:25 50.63745 9.98413 17166 ft 342 kts 237°
2026-05-06 14:25 50.62486 9.95276 16521 ft 334 kts 237°
2026-05-06 14:25 50.61257 9.92218 15870 ft 327 kts 237°
2026-05-06 14:25 50.60455 9.90224 15446 ft 323 kts 237°
2026-05-06 14:26 50.58877 9.86305 14608 ft 316 kts 237°
2026-05-06 14:26 50.57706 9.83398 14020 ft 313 kts 237°
2026-05-06 14:26 50.56919 9.81448 13605 ft 311 kts 237°
2026-05-06 14:26 50.55765 9.78592 12969 ft 308 kts 237°
2026-05-06 14:27 50.54619 9.75756 12318 ft 306 kts 237°
2026-05-06 14:27 50.53484 9.72948 11675 ft 304 kts 237°
2026-05-06 14:27 50.52351 9.70148 11079 ft 301 kts 237°
2026-05-06 14:27 50.51221 9.67360 10898 ft 307 kts 237°
2026-05-06 14:28 50.50077 9.64543 10762 ft 316 kts 237°
2026-05-06 14:28 50.48892 9.61628 10736 ft 313 kts 237°
2026-05-06 14:28 50.47826 9.58707 10723 ft 305 kts 243°
2026-05-06 14:28 50.46797 9.55846 10736 ft 299 kts 232°
2026-05-06 14:29 50.45451 9.53365 10737 ft 301 kts 228°
2026-05-06 14:29 50.44076 9.50884 10760 ft 303 kts 229°
2026-05-06 14:29 50.42700 9.48366 10760 ft 304 kts 229°
2026-05-06 14:29 50.41342 9.45858 10747 ft 306 kts 229°
2026-05-06 14:30 50.39982 9.43327 10742 ft 303 kts 230°
2026-05-06 14:30 50.38662 9.40860 10740 ft 299 kts 230°
2026-05-06 14:30 50.37332 9.38370 10741 ft 298 kts 230°
2026-05-06 14:30 50.36001 9.35875 10766 ft 300 kts 230°
2026-05-06 14:31 50.34658 9.33359 10770 ft 303 kts 230°
2026-05-06 14:31 50.33305 9.30823 10736 ft 304 kts 230°
2026-05-06 14:31 50.31955 9.28294 10627 ft 301 kts 230°
2026-05-06 14:31 50.30630 9.25814 10536 ft 291 kts 230°
2026-05-06 14:32 50.29351 9.23422 10400 ft 286 kts 230°
2026-05-06 14:32 50.28101 9.21085 10274 ft 272 kts 230°
2026-05-06 14:32 50.26925 9.18889 9841 ft 261 kts 230°
2026-05-06 14:32 50.25765 9.16723 9276 ft 261 kts 230°
2026-05-06 14:33 50.24615 9.14579 8956 ft 257 kts 230°
2026-05-06 14:33 50.23470 9.12449 8563 ft 257 kts 230°
2026-05-06 14:33 50.22321 9.10310 8176 ft 255 kts 230°
2026-05-06 14:33 50.21200 9.08226 7768 ft 255 kts 230°
2026-05-06 14:34 50.20058 9.06101 7385 ft 254 kts 230°
2026-05-06 14:34 50.18932 9.04010 7138 ft 248 kts 229°
2026-05-06 14:34 50.17839 9.01983 6777 ft 246 kts 229°
2026-05-06 14:34 50.16763 8.99989 6646 ft 235 kts 229°
2026-05-06 14:35 50.15732 8.98081 6478 ft 231 kts 229°
2026-05-06 14:35 50.14766 8.96045 6171 ft 235 kts 243°
2026-05-06 14:35 50.14192 8.93657 5908 ft 235 kts 250°
2026-05-06 14:35 50.13652 8.91314 5593 ft 230 kts 248°
2026-05-06 14:36 50.13091 8.88998 5306 ft 225 kts 248°
2026-05-06 14:36 50.12558 8.86776 5076 ft 216 kts 248°
2026-05-06 14:36 50.12057 8.84676 4796 ft 205 kts 248°
2026-05-06 14:36 50.11576 8.82656 4588 ft 193 kts 248°
2026-05-06 14:37 50.11124 8.80759 4306 ft 178 kts 248°
2026-05-06 14:37 50.10714 8.79041 4011 ft 161 kts 248°
2026-05-06 14:37 50.10329 8.77429 3824 ft 162 kts 249°
2026-05-06 14:37 50.09926 8.75740 3586 ft 175 kts 249°
2026-05-06 14:38 50.09505 8.73985 3316 ft 169 kts 249°
2026-05-06 14:38 50.09165 8.72567 3146 ft 167 kts 249°
2026-05-06 14:38 50.08766 8.70875 2869 ft 164 kts 249°
2026-05-06 14:38 50.08372 8.69234 2661 ft 161 kts 250°
2026-05-06 14:39 50.07987 8.67619 2451 ft 166 kts 250°
2026-05-06 14:39 50.07583 8.65925 2206 ft 167 kts 250°
2026-05-06 14:39 50.07188 8.64273 1986 ft 160 kts 249°
2026-05-06 14:39 50.06810 8.62690 1755 ft 153 kts 250°
2026-05-06 14:40 50.06605 8.61832 1647 ft 155 kts 251°
2026-05-06 14:40 50.06289 8.60515 1438 ft 154 kts 251°
2026-05-06 14:40 50.05940 8.59045 1211 ft 144 kts 250°
2026-05-06 14:40 50.05585 8.57568 1021 ft 146 kts 249°
2026-05-06 14:41 50.05262 8.56196 827 ft 141 kts 250°
2026-05-06 14:41 50.04945 8.54868 633 ft 137 kts 248°
2026-05-06 14:41 50.04642 8.53622 447 ft 123 kts 249°
2026-05-06 14:41 50.04367 8.52465 362 ft 116 kts 250°
2026-05-06 14:42 50.04131 8.51485 336 ft 54 kts 249°
2026-05-06 14:42 50.04036 8.51139 329 ft 29 kts 239°
2026-05-06 14:42 50.03917 8.50931 327 ft 19 kts 220°
2026-05-06 14:42 50.03910 8.50921 327 ft 0 kts 219°
2026-05-06 14:43 50.03894 8.50901 327 ft 6 kts 220°
2026-05-06 14:43 50.03853 8.50851 329 ft 9 kts 211°
2026-05-06 14:43 50.03797 8.50857 333 ft 9 kts 149°
2026-05-06 14:43 50.03758 8.50950 336 ft 12 kts 118°
2026-05-06 14:44 50.03715 8.51088 356 ft 18 kts 116°
2026-05-06 14:44 50.03653 8.51284 357 ft 25 kts 115°
2026-05-06 14:44 50.03617 8.51398 362 ft 6 kts 116°
2026-05-06 14:45 50.03528 8.51678 366 ft 15 kts 115°
2026-05-06 14:45 50.03516 8.51833 362 ft 18 kts 85°
2026-05-06 14:45 50.03521 8.51917 364 ft 12 kts 83°
2026-05-06 14:45 50.03529 8.52033 356 ft 13 kts 84°
2026-05-06 14:46 50.03540 8.52168 349 ft 2 kts 83°
2026-05-06 14:46 50.03543 8.52202 349 ft 1 kts 82°
2026-05-06 14:46 50.03550 8.52285 353 ft 0 kts 81°
2026-05-06 14:46 50.03561 8.52348 345 ft 13 kts 74°
2026-05-06 14:47 50.03555 8.52409 347 ft 10 kts 120°
2026-05-06 14:47 50.03515 8.52483 352 ft 11 kts 117°
2026-05-06 14:47 50.03510 8.52631 350 ft 18 kts 81°
2026-05-06 14:47 50.03559 8.52862 348 ft 15 kts 69°
2026-05-06 14:48 50.03575 8.52931 350 ft 8 kts 72°
2026-05-06 14:48 50.03595 8.53019 352 ft 2 kts 69°
2026-05-06 14:48 50.03717 8.53095 355 ft 0 kts 339°